Time[GMT],gps_lat[degrees_north](-0m),gps_lon[degrees_west](-0m)
2015-12-13 19:00,43.756317139,-69.339103699
2015-12-13 20:00,43.756317139,-69.339134216
2015-12-13 21:00,43.756351471,-69.339050293
2015-12-13 22:00,43.756301880,-69.339080811
2015-12-13 23:00,43.756366730,-69.339179993
2015-12-14 00:00,43.756317139,-69.339050293
2015-12-14 01:00,43.756351471,-69.339103699
2015-12-14 02:00,43.756401062,-69.339118958
2015-12-14 03:00,43.756416321,-69.339134216
2015-12-14 04:00,43.756366730,-69.339118958
2015-12-14 05:00,43.756416321,-69.339118958
2015-12-14 06:00,43.756366730,-69.339103699
2015-12-14 07:00,43.756366730,-69.339149475
2015-12-14 08:00,43.756416321,-69.339164734
2015-12-14 09:00,43.756565094,-69.339202881
2015-12-14 10:00,43.756431580,-69.339118958
2015-12-14 11:00,43.756484985,-69.339118958
2015-12-14 12:00,43.756500244,-69.339080811
2015-12-14 13:00,43.756549835,-69.339149475
2015-12-14 14:00,43.756534576,-69.339202881
2015-12-14 15:00,43.756431580,-69.339103699
2015-12-14 16:00,43.756484985,-69.339164734
2015-12-14 17:00,43.756465912,-69.339164734
2015-12-14 18:00,43.756484985,-69.339149475
2015-12-14 19:00,43.756500244,-69.339149475
2015-12-14 20:00,43.756366730,-69.339080811
2015-12-14 21:00,43.756381989,-69.339218140
2015-12-14 22:00,43.756416321,-69.339248657
2015-12-14 23:00,43.756450653,-69.339218140
2015-12-15 00:00,43.756366730,-69.339302063
2015-12-15 01:00,43.756584167,-69.339286804
2015-12-15 02:00,43.756465912,-69.339263916
2015-12-15 03:00,43.757450104,-69.339767456
2015-12-15 04:00,43.756565094,-69.339317322
2015-12-15 05:00,43.756534576,-69.339218140
2015-12-15 06:00,43.756599426,-69.339317322
2015-12-15 07:00,43.756465912,-69.339218140
2015-12-15 08:00,43.756431580,-69.339202881
2015-12-15 09:00,43.756381989,-69.339149475
2015-12-15 10:00,43.756267548,-69.339179993
2015-12-15 11:00,43.756282806,-69.339019775
2015-12-15 12:00,43.756301880,-69.339103699
2015-12-15 13:00,43.756248474,-69.338996887
2015-12-15 14:00,43.756183624,-69.338966370
2015-12-15 15:00,43.756099701,-69.338966370
2015-12-15 16:00,43.756351471,-69.338851929
2015-12-15 17:00,43.756282806,-69.338981628
2015-12-15 18:00,43.756317139,-69.338981628
2015-12-15 19:00,43.756301880,-69.339035034
2015-12-15 20:00,43.756282806,-69.339065552
2015-12-15 21:00,43.756248474,-69.339019775
2015-12-15 22:00,43.756183624,-69.339118958
2015-12-15 23:00,43.756099701,-69.339179993
2015-12-16 00:00,43.756034851,-69.339080811
2015-12-16 01:00,43.756217957,-69.338981628
2015-12-16 02:00,43.756099701,-69.338951111
2015-12-16 03:00,43.756217957,-69.339202881
2015-12-16 04:00,43.756065369,-69.339035034
2015-12-16 05:00,43.756114960,-69.339035034
2015-12-16 06:00,43.756134033,-69.339118958
2015-12-16 07:00,43.756149292,-69.339118958
2015-12-16 08:00,43.756168365,-69.339103699
2015-12-16 09:00,43.756168365,-69.339103699
2015-12-16 10:00,43.756149292,-69.339118958
2015-12-16 11:00,43.756114960,-69.339065552
2015-12-16 12:00,43.755981445,-69.339065552
2015-12-16 13:00,43.756183624,-69.339149475
2015-12-16 14:00,43.756233215,-69.339218140
2015-12-16 15:00,43.756282806,-69.339149475
2015-12-16 16:00,43.756317139,-69.339164734
2015-12-16 17:00,43.756351471,-69.339149475
2015-12-16 18:00,43.756366730,-69.339233398
2015-12-16 19:00,43.756366730,-69.339202881
2015-12-16 20:00,43.756217957,-69.339286804
2015-12-16 21:00,43.756301880,-69.339149475
2015-12-16 22:00,43.756381989,-69.339118958
2015-12-16 23:00,43.756351471,-69.339164734
2015-12-17 00:00,43.756366730,-69.339134216
2015-12-17 01:00,43.756351471,-69.339118958
2015-12-17 02:00,43.756401062,-69.339118958
2015-12-17 03:00,43.756416321,-69.339149475
2015-12-17 04:00,43.756416321,-69.339164734
2015-12-17 05:00,43.756431580,-69.339164734
2015-12-17 06:00,43.756500244,-69.339317322
2015-12-17 07:00,43.756431580,-69.339218140
2015-12-17 08:00,43.756515503,-69.339248657
2015-12-17 09:00,43.756534576,-69.339248657
2015-12-17 10:00,43.756484985,-69.339202881
2015-12-17 11:00,43.756431580,-69.339118958
2015-12-17 12:00,43.756450653,-69.339149475
2015-12-17 13:00,43.756401062,-69.339179993
2015-12-17 14:00,43.756549835,-69.339164734
2015-12-17 15:00,43.756599426,-69.339134216
2015-12-17 16:00,43.756565094,-69.339164734
2015-12-17 17:00,43.756565094,-69.339149475
2015-12-17 18:00,43.756633759,-69.339134216
2015-12-17 19:00,43.756633759,-69.339218140
2015-12-17 20:00,43.756618500,-69.339233398
2015-12-17 21:00,43.756549835,-69.339248657
2015-12-17 22:00,43.756431580,-69.339569092
2015-12-17 23:00,43.756549835,-69.339218140
2015-12-18 00:00,43.756515503,-69.339118958
2015-12-18 01:00,43.756484985,-69.339149475
2015-12-18 02:00,43.756484985,-69.339164734
2015-12-18 03:00,43.756484985,-69.339263916
2015-12-18 04:00,43.756450653,-69.339248657
2015-12-18 05:00,43.756484985,-69.339179993
2015-12-18 06:00,43.756431580,-69.339164734
2015-12-18 07:00,43.756366730,-69.339218140
2015-12-18 08:00,43.756366730,-69.339179993
2015-12-18 09:00,43.756332397,-69.339118958
2015-12-18 10:00,43.756282806,-69.339179993
2015-12-18 11:00,43.756168365,-69.339080811
2015-12-18 12:00,43.756233215,-69.339134216
2015-12-18 13:00,43.756301880,-69.339080811
2015-12-18 14:00,43.756332397,-69.339103699
2015-12-18 15:00,43.756332397,-69.338981628
2015-12-18 16:00,43.756366730,-69.339065552
2015-12-18 17:00,43.756366730,-69.339065552
2015-12-18 18:00,43.756366730,-69.339080811
2015-12-18 19:00,43.756401062,-69.339080811
2015-12-18 20:00,43.756317139,-69.339118958
2015-12-18 21:00,43.756282806,-69.339149475
2015-12-18 22:00,43.756332397,-69.339164734
2015-12-18 23:00,43.756233215,-69.339164734
2015-12-19 00:00,43.756233215,-69.339103699
2015-12-19 01:00,43.756198883,-69.339118958
2015-12-19 02:00,43.756183624,-69.339080811
2015-12-19 03:00,43.756198883,-69.339050293
2015-12-19 04:00,43.756366730,-69.339118958
2015-12-19 05:00,43.756282806,-69.338897705
2015-12-19 06:00,43.756301880,-69.338966370
2015-12-19 07:00,43.756282806,-69.338867188
2015-12-19 08:00,43.756366730,-69.338951111
2015-12-19 09:00,43.756366730,-69.338981628
2015-12-19 10:00,43.756267548,-69.338966370
2015-12-19 11:00,43.756233215,-69.338882446
2015-12-19 12:00,43.757034302,-69.337600708
2015-12-19 13:00,43.756317139,-69.338996887
2015-12-19 14:00,43.756351471,-69.338882446
2015-12-19 15:00,43.756317139,-69.338836670
2015-12-19 16:00,43.756366730,-69.338836670
2015-12-19 17:00,43.756366730,-69.338752747
2015-12-19 18:00,43.756366730,-69.338783264
2015-12-19 19:00,43.756282806,-69.338882446
2015-12-19 20:00,43.756317139,-69.338912964
2015-12-19 21:00,43.756267548,-69.338912964
2015-12-19 22:00,43.756301880,-69.338935852
2015-12-19 23:00,43.756317139,-69.338813782
2015-12-20 00:00,43.756282806,-69.338783264
2015-12-20 01:00,43.756332397,-69.338653564
2015-12-20 02:00,43.756366730,-69.338813782
2015-12-20 03:00,43.756301880,-69.338729858
2015-12-20 04:00,43.756484985,-69.338714600
2015-12-20 05:00,43.756431580,-69.338768005
2015-12-20 06:00,43.756267548,-69.338851929
2015-12-20 07:00,43.756282806,-69.338699341
2015-12-20 08:00,43.756332397,-69.338867188
2015-12-20 09:00,43.756317139,-69.338996887
2015-12-20 10:00,43.756248474,-69.338981628
2015-12-20 11:00,43.756168365,-69.338851929
2015-12-20 12:00,43.756134033,-69.338981628
2015-12-20 13:00,43.756217957,-69.339035034
2015-12-20 14:00,43.756267548,-69.338966370
2015-12-20 15:00,43.756198883,-69.338966370
2015-12-20 16:00,43.756282806,-69.338935852
2015-12-20 17:00,43.756351471,-69.338981628
2015-12-20 18:00,43.756366730,-69.338935852
2015-12-20 19:00,43.756465912,-69.338935852
2015-12-20 20:00,43.756416321,-69.338966370
2015-12-20 21:00,43.756465912,-69.338981628
2015-12-20 22:00,43.756450653,-69.339179993
2015-12-20 23:00,43.756401062,-69.338996887
2015-12-21 00:00,43.756366730,-69.338882446
2015-12-21 01:00,43.756317139,-69.338996887
2015-12-21 02:00,43.756301880,-69.338996887
2015-12-21 03:00,43.756317139,-69.339019775
2015-12-21 04:00,43.756301880,-69.339103699
2015-12-21 05:00,43.756381989,-69.339103699
2015-12-21 06:00,43.756465912,-69.339035034
2015-12-21 07:00,43.756484985,-69.338912964
2015-12-21 08:00,43.756618500,-69.338897705
2015-12-21 09:00,43.756599426,-69.338951111
2015-12-21 10:00,43.756534576,-69.338935852
2015-12-21 11:00,43.756633759,-69.338912964
2015-12-21 12:00,43.756599426,-69.338882446
2015-12-21 13:00,43.756500244,-69.338882446
2015-12-21 14:00,43.756584167,-69.338783264
2015-12-21 15:00,43.756584167,-69.338684082
2015-12-21 16:00,43.756515503,-69.338768005
2015-12-21 17:00,43.756500244,-69.338783264
2015-12-21 18:00,43.756534576,-69.338783264
2015-12-21 19:00,43.756565094,-69.338813782
2015-12-21 20:00,43.756584167,-69.338867188
2015-12-21 21:00,43.756565094,-69.338867188
2015-12-21 22:00,43.756465912,-69.339035034
2015-12-21 23:00,43.756450653,-69.338951111
2015-12-22 00:00,43.756465912,-69.338981628
2015-12-22 01:00,43.756484985,-69.338935852
2015-12-22 02:00,,
2015-12-22 03:00,43.756465912,-69.338966370
2015-12-22 04:00,43.756431580,-69.338882446
2015-12-22 05:00,43.756565094,-69.338912964
2015-12-22 06:00,43.756465912,-69.338935852
2015-12-22 07:00,43.756465912,-69.338935852
2015-12-22 08:00,43.756500244,-69.338966370
2015-12-22 09:00,43.756450653,-69.339050293
2015-12-22 10:00,43.756450653,-69.339035034
2015-12-22 11:00,43.756366730,-69.339103699
2015-12-22 12:00,43.756267548,-69.339218140
2015-12-22 13:00,43.756431580,-69.339164734
2015-12-22 14:00,43.756416321,-69.339118958
2015-12-22 15:00,43.756351471,-69.339118958
2015-12-22 16:00,43.756381989,-69.339149475
2015-12-22 17:00,43.756366730,-69.339103699
2015-12-22 18:00,43.756401062,-69.339149475
2015-12-22 19:00,43.756450653,-69.339286804
2015-12-22 20:00,43.756301880,-69.339431763
2015-12-22 21:00,43.756534576,-69.339286804
2015-12-22 22:00,43.756500244,-69.339347839
2015-12-22 23:00,43.756565094,-69.339103699
2015-12-23 00:00,43.756500244,-69.338981628
2015-12-23 01:00,43.756416321,-69.339035034
2015-12-23 02:00,43.756301880,-69.339050293
2015-12-23 03:00,43.756332397,-69.339103699
2015-12-23 04:00,43.756267548,-69.339035034
2015-12-23 05:00,43.756267548,-69.339080811
2015-12-23 06:00,43.756317139,-69.339149475
2015-12-23 07:00,43.756366730,-69.339080811
2015-12-23 08:00,43.756381989,-69.339118958
2015-12-23 09:00,43.756401062,-69.339118958
2015-12-23 10:00,43.756351471,-69.339065552
2015-12-23 11:00,43.756381989,-69.339149475
2015-12-23 12:00,43.756416321,-69.339164734
2015-12-23 13:00,43.756381989,-69.339202881
2015-12-23 14:00,43.756381989,-69.339202881
2015-12-23 15:00,43.756401062,-69.339149475
2015-12-23 16:00,43.756381989,-69.339149475
2015-12-23 17:00,43.756401062,-69.339149475
2015-12-23 18:00,43.756416321,-69.339149475
2015-12-23 19:00,43.756401062,-69.339118958
2015-12-23 20:00,43.756416321,-69.339118958
2015-12-23 21:00,43.756401062,-69.339179993
2015-12-23 22:00,43.756465912,-69.339332581
2015-12-23 23:00,43.756416321,-69.339286804
2015-12-24 00:00,43.756465912,-69.339286804
2015-12-24 01:00,43.756431580,-69.339317322
2015-12-24 02:00,43.756465912,-69.339347839
2015-12-24 03:00,43.756450653,-69.339332581
2015-12-24 04:00,43.756416321,-69.339302063
2015-12-24 05:00,43.756450653,-69.339385986
2015-12-24 06:00,43.756401062,-69.339546204
2015-12-24 07:00,43.756450653,-69.339500427
2015-12-24 08:00,43.756565094,-69.339347839
2015-12-24 09:00,43.756534576,-69.339302063
2015-12-24 10:00,43.756515503,-69.339202881
2015-12-24 11:00,43.756500244,-69.339164734
2015-12-24 12:00,43.756500244,-69.339179993
2015-12-24 13:00,43.756500244,-69.339233398
2015-12-24 14:00,43.756416321,-69.339134216
2015-12-24 15:00,43.756401062,-69.339134216
2015-12-24 16:00,43.756416321,-69.339118958
2015-12-24 17:00,43.756431580,-69.339103699
2015-12-24 18:00,43.756381989,-69.339065552
2015-12-24 19:00,43.756401062,-69.339035034
2015-12-24 20:00,43.756381989,-69.339050293
2015-12-24 21:00,43.756431580,-69.338966370
2015-12-24 22:00,43.756431580,-69.339080811
2015-12-24 23:00,43.756515503,-69.339019775
2015-12-25 00:00,43.756515503,-69.338981628
2015-12-25 01:00,43.756465912,-69.339050293
2015-12-25 02:00,43.756450653,-69.339202881
2015-12-25 03:00,43.756450653,-69.339149475
2015-12-25 04:00,43.756381989,-69.338996887
2015-12-25 05:00,43.756450653,-69.339035034
2015-12-25 06:00,43.756366730,-69.339035034
2015-12-25 07:00,43.756366730,-69.339065552
2015-12-25 08:00,43.756332397,-69.339149475
2015-12-25 09:00,43.756381989,-69.339035034
2015-12-25 10:00,43.756401062,-69.339103699
2015-12-25 11:00,43.756401062,-69.339065552
2015-12-25 12:00,43.756381989,-69.339134216
2015-12-25 13:00,43.756366730,-69.339103699
2015-12-25 14:00,43.756416321,-69.339080811
2015-12-25 15:00,43.756381989,-69.339080811
2015-12-25 16:00,43.756366730,-69.339080811
2015-12-25 17:00,43.756366730,-69.339103699
2015-12-25 18:00,43.756381989,-69.339080811
2015-12-25 19:00,43.756366730,-69.339065552
2015-12-25 20:00,43.756381989,-69.339050293
2015-12-25 21:00,43.756416321,-69.338981628
2015-12-25 22:00,43.756381989,-69.339080811
2015-12-25 23:00,43.756366730,-69.339080811
2015-12-26 00:00,43.756416321,-69.339065552
2015-12-26 01:00,43.756431580,-69.339065552
2015-12-26 02:00,43.756332397,-69.339134216
2015-12-26 03:00,43.756332397,-69.339118958
2015-12-26 04:00,43.756332397,-69.339134216
2015-12-26 05:00,43.756351471,-69.339103699
2015-12-26 06:00,43.756217957,-69.339317322
2015-12-26 07:00,43.756149292,-69.339019775
2015-12-26 08:00,43.756248474,-69.339035034
2015-12-26 09:00,43.756217957,-69.338996887
2015-12-26 10:00,43.756217957,-69.338981628
2015-12-26 11:00,43.756282806,-69.339065552
2015-12-26 12:00,43.756267548,-69.339019775
2015-12-26 13:00,43.756401062,-69.339134216
2015-12-26 14:00,43.756282806,-69.339035034
2015-12-26 15:00,43.756301880,-69.339019775
2015-12-26 16:00,43.756282806,-69.339065552
2015-12-26 17:00,43.756282806,-69.338981628
2015-12-26 18:00,43.756332397,-69.338996887
2015-12-26 19:00,43.756267548,-69.339019775
2015-12-26 20:00,43.756282806,-69.339050293
2015-12-26 21:00,43.756366730,-69.339065552
2015-12-26 22:00,43.756332397,-69.339065552
2015-12-26 23:00,43.756366730,-69.339080811
2015-12-27 00:00,43.756381989,-69.339080811
2015-12-27 01:00,43.756381989,-69.339050293
2015-12-27 02:00,43.756401062,-69.339080811
2015-12-27 03:00,43.756401062,-69.339134216
2015-12-27 04:00,43.756366730,-69.339118958
2015-12-27 05:00,43.756401062,-69.339103699
2015-12-27 06:00,43.756366730,-69.339118958
2015-12-27 07:00,43.756381989,-69.339118958
2015-12-27 08:00,43.756450653,-69.339179993
2015-12-27 09:00,43.756431580,-69.339149475
2015-12-27 10:00,43.756366730,-69.339149475
2015-12-27 11:00,43.756416321,-69.339218140
2015-12-27 12:00,43.756450653,-69.339233398
2015-12-27 13:00,43.756416321,-69.339202881
2015-12-27 14:00,43.756450653,-69.339286804
2015-12-27 15:00,43.756465912,-69.339202881
2015-12-27 16:00,43.756431580,-69.339263916
2015-12-27 17:00,43.756416321,-69.339233398
2015-12-27 18:00,43.756401062,-69.339164734
2015-12-27 19:00,43.756332397,-69.339179993
2015-12-27 20:00,43.756233215,-69.339164734
2015-12-27 21:00,43.756267548,-69.339118958
2015-12-27 22:00,43.756233215,-69.339202881
2015-12-27 23:00,43.756301880,-69.339149475
2015-12-28 00:00,43.756332397,-69.339065552
2015-12-28 01:00,43.756332397,-69.339035034
2015-12-28 02:00,43.756317139,-69.339050293
2015-12-28 03:00,43.756282806,-69.339164734
2015-12-28 04:00,43.756248474,-69.339050293
2015-12-28 05:00,43.756217957,-69.339103699
2015-12-28 06:00,43.756149292,-69.339233398
2015-12-28 07:00,43.756198883,-69.339080811
2015-12-28 08:00,43.756248474,-69.338912964
2015-12-28 09:00,43.756248474,-69.338935852
2015-12-28 10:00,43.756099701,-69.338813782
2015-12-28 11:00,43.756099701,-69.338783264
2015-12-28 12:00,43.756034851,-69.338951111
2015-12-28 13:00,43.756149292,-69.338935852
2015-12-28 14:00,43.756050110,-69.338851929
2015-12-28 15:00,43.756217957,-69.338966370
2015-12-28 16:00,43.756183624,-69.339103699
2015-12-28 17:00,43.756134033,-69.339118958
2015-12-28 18:00,43.756233215,-69.339080811
2015-12-28 19:00,43.756168365,-69.339118958
2015-12-28 20:00,43.756134033,-69.339103699
2015-12-28 21:00,43.756183624,-69.339080811
2015-12-28 22:00,43.756198883,-69.339149475
2015-12-28 23:00,43.756248474,-69.339019775
2015-12-29 00:00,43.756217957,-69.339118958
2015-12-29 01:00,43.756248474,-69.339118958
2015-12-29 02:00,43.756168365,-69.339149475
2015-12-29 03:00,43.756317139,-69.339149475
2015-12-29 04:00,43.756366730,-69.339149475
2015-12-29 05:00,43.756351471,-69.339149475
2015-12-29 06:00,43.756381989,-69.339218140
2015-12-29 07:00,43.756332397,-69.339233398
2015-12-29 08:00,43.756416321,-69.339202881
2015-12-29 09:00,43.756248474,-69.339164734
2015-12-29 10:00,43.756198883,-69.339286804
2015-12-29 11:00,43.756332397,-69.339317322
2015-12-29 12:00,43.756366730,-69.339416504
2015-12-29 13:00,43.756416321,-69.339401245
2015-12-29 14:00,43.756431580,-69.339416504
2015-12-29 15:00,43.756416321,-69.339431763
2015-12-29 16:00,43.756366730,-69.339500427
2015-12-29 17:00,43.756431580,-69.339485168
2015-12-29 18:00,43.756450653,-69.339515686
2015-12-29 19:00,43.756401062,-69.339546204
2015-12-29 20:00,43.756332397,-69.339401245
2015-12-29 21:00,43.756267548,-69.339401245
2015-12-29 22:00,43.756134033,-69.339385986
2015-12-29 23:00,43.756149292,-69.339263916
2015-12-30 00:00,43.756168365,-69.339317322
2015-12-30 01:00,43.756217957,-69.339317322
2015-12-30 02:00,43.756050110,-69.339286804
2015-12-30 03:00,43.756183624,-69.339302063
2015-12-30 04:00,43.756198883,-69.339286804
2015-12-30 05:00,43.756198883,-69.339233398
2015-12-30 06:00,43.756198883,-69.339233398
2015-12-30 07:00,43.756217957,-69.339302063
2015-12-30 08:00,43.756267548,-69.339233398
2015-12-30 09:00,43.756233215,-69.339149475
2015-12-30 10:00,43.756198883,-69.339164734
2015-12-30 11:00,43.756183624,-69.339164734
2015-12-30 12:00,43.756282806,-69.339149475
2015-12-30 13:00,43.756317139,-69.339233398
2015-12-30 14:00,43.756351471,-69.339118958
2015-12-30 15:00,43.756332397,-69.339118958
2015-12-30 16:00,43.756317139,-69.339149475
2015-12-30 17:00,43.756332397,-69.339149475
2015-12-30 18:00,43.756366730,-69.339118958
2015-12-30 19:00,43.756282806,-69.339202881
2015-12-30 20:00,43.756282806,-69.339164734
2015-12-30 21:00,43.756282806,-69.339164734
2015-12-30 22:00,43.756248474,-69.339149475
2015-12-30 23:00,43.756217957,-69.339134216
2015-12-31 00:00,43.756332397,-69.339118958
2015-12-31 01:00,43.756381989,-69.339134216
2015-12-31 02:00,43.756381989,-69.339118958
2015-12-31 03:00,43.756381989,-69.339134216
2015-12-31 04:00,43.756401062,-69.339164734
2015-12-31 05:00,43.756534576,-69.339179993
2015-12-31 06:00,43.756534576,-69.339103699
2015-12-31 07:00,43.756584167,-69.339149475
2015-12-31 08:00,43.756450653,-69.339080811
2015-12-31 09:00,43.756401062,-69.339080811
2015-12-31 10:00,43.756351471,-69.339065552
2015-12-31 11:00,43.756301880,-69.339103699
2015-12-31 12:00,43.756332397,-69.339118958
2015-12-31 13:00,43.756431580,-69.339164734
2015-12-31 14:00,43.756401062,-69.339118958
2015-12-31 15:00,43.756381989,-69.339019775
2015-12-31 16:00,43.756401062,-69.339080811
2015-12-31 17:00,43.756416321,-69.339103699
2015-12-31 18:00,43.756465912,-69.339103699
2015-12-31 19:00,43.756381989,-69.339118958
2015-12-31 20:00,43.756416321,-69.339149475
2015-12-31 21:00,43.756401062,-69.339118958
2015-12-31 22:00,43.756381989,-69.339080811
2015-12-31 23:00,43.756366730,-69.339050293
2016-01-01 00:00,43.756381989,-69.339035034
2016-01-01 01:00,43.756500244,-69.339431763
2016-01-01 02:00,43.756381989,-69.338981628
2016-01-01 03:00,43.756431580,-69.338912964
2016-01-01 04:00,43.756401062,-69.338912964
2016-01-01 05:00,43.756351471,-69.338996887
2016-01-01 06:00,43.756332397,-69.339019775
2016-01-01 07:00,43.756381989,-69.339050293
2016-01-01 08:00,43.756431580,-69.338996887
2016-01-01 09:00,43.756416321,-69.339065552
2016-01-01 10:00,43.756351471,-69.338981628
2016-01-01 11:00,43.756366730,-69.338813782
2016-01-01 12:00,43.756282806,-69.338996887
2016-01-01 13:00,43.756401062,-69.339065552
2016-01-01 14:00,43.756401062,-69.338951111
2016-01-01 15:00,43.756381989,-69.338935852
2016-01-01 16:00,43.756416321,-69.338951111
2016-01-01 17:00,43.756416321,-69.338966370
2016-01-01 18:00,43.756416321,-69.339035034
2016-01-01 19:00,43.756381989,-69.338996887
2016-01-01 20:00,43.756381989,-69.339050293
2016-01-01 21:00,43.756381989,-69.339065552
2016-01-01 22:00,43.756366730,-69.338996887
2016-01-01 23:00,43.756366730,-69.338981628
2016-01-02 00:00,43.756332397,-69.338981628
2016-01-02 01:00,43.756332397,-69.338951111
2016-01-02 02:00,43.756183624,-69.338951111
2016-01-02 03:00,43.756317139,-69.339035034
2016-01-02 04:00,43.756332397,-69.338951111
2016-01-02 05:00,43.756366730,-69.338981628
2016-01-02 06:00,43.756282806,-69.338897705
2016-01-02 07:00,43.756366730,-69.338851929
2016-01-02 08:00,43.756366730,-69.338935852
2016-01-02 09:00,43.756332397,-69.338882446
2016-01-02 10:00,43.756267548,-69.338882446
2016-01-02 11:00,43.756233215,-69.338897705
2016-01-02 12:00,43.756282806,-69.339019775
2016-01-02 13:00,43.756317139,-69.338912964
2016-01-02 14:00,43.756282806,-69.338912964
2016-01-02 15:00,43.756317139,-69.338912964
2016-01-02 16:00,43.756366730,-69.338912964
2016-01-02 17:00,43.756401062,-69.338966370
2016-01-02 18:00,43.756416321,-69.338897705
2016-01-02 19:00,43.756366730,-69.338935852
2016-01-02 20:00,43.756381989,-69.339035034
2016-01-02 21:00,43.756366730,-69.339149475
2016-01-02 22:00,43.756381989,-69.339019775
2016-01-02 23:00,43.756401062,-69.338935852
2016-01-03 00:00,43.756401062,-69.338882446
2016-01-03 01:00,43.756431580,-69.338935852
2016-01-03 02:00,43.756366730,-69.338935852
2016-01-03 03:00,43.756450653,-69.338798523
2016-01-03 04:00,43.756500244,-69.338882446
2016-01-03 05:00,43.756416321,-69.338867188
2016-01-03 06:00,43.756366730,-69.338851929
2016-01-03 07:00,43.756450653,-69.338813782
2016-01-03 08:00,43.756500244,-69.338951111
2016-01-03 09:00,43.756450653,-69.338951111
2016-01-03 10:00,43.756401062,-69.338882446
2016-01-03 11:00,43.756317139,-69.339019775
2016-01-03 12:00,43.756332397,-69.339019775
2016-01-03 13:00,43.756484985,-69.339050293
2016-01-03 14:00,43.756416321,-69.338951111
2016-01-03 15:00,43.756465912,-69.338897705
2016-01-03 16:00,43.756431580,-69.338867188
2016-01-03 17:00,43.756484985,-69.338882446
2016-01-03 18:00,43.756484985,-69.338813782
2016-01-03 19:00,43.756484985,-69.338836670
2016-01-03 20:00,43.756450653,-69.338813782
2016-01-03 21:00,43.756431580,-69.338951111
2016-01-03 22:00,43.756401062,-69.338981628
2016-01-03 23:00,43.756332397,-69.338897705
2016-01-04 00:00,43.756351471,-69.338935852
2016-01-04 01:00,43.756366730,-69.338897705
2016-01-04 02:00,43.756248474,-69.338966370
2016-01-04 03:00,43.756332397,-69.338867188
2016-01-04 04:00,43.756267548,-69.338882446
2016-01-04 05:00,43.756248474,-69.338912964
2016-01-04 06:00,43.756198883,-69.338935852
2016-01-04 07:00,43.756267548,-69.339019775
2016-01-04 08:00,43.756198883,-69.339103699
2016-01-04 09:00,43.756217957,-69.339149475
2016-01-04 10:00,43.756065369,-69.339134216
2016-01-04 11:00,43.756168365,-69.339149475
2016-01-04 12:00,43.756248474,-69.339218140
2016-01-04 13:00,43.756114960,-69.339118958
2016-01-04 14:00,43.756134033,-69.339149475
2016-01-04 15:00,43.756114960,-69.339149475
2016-01-04 16:00,43.756168365,-69.339035034
2016-01-04 17:00,43.756351471,-69.339118958
2016-01-04 18:00,43.756198883,-69.338981628
2016-01-04 19:00,43.756168365,-69.339019775
2016-01-04 20:00,43.756168365,-69.339035034
2016-01-04 21:00,43.756217957,-69.339149475
2016-01-04 22:00,43.756149292,-69.339149475